Weather reports worldwide

Advertisment
Brize Norton, United Kingdom (3649): temperature & dewpoint: 07.12.2018 09:00:00 - 13.12.2018 09:00:00 (GMT)Brize Norton, United Kingdom (3649): temperature -20cm & temperature -100cm: 07.12.2018 09:00:00 - 13.12.2018 09:00:00 (GMT)Brize Norton, United Kingdom (3649): wind speed & gusts: 07.12.2018 09:00:00 - 13.12.2018 09:00:00 (GMT)Brize Norton, United Kingdom (3649): wind direction: 07.12.2018 09:00:00 - 13.12.2018 09:00:00 (GMT)Brize Norton, United Kingdom (3649): reduced air pressure: 07.12.2018 09:00:00 - 13.12.2018 09:00:00 (GMT)Brize Norton, United Kingdom (3649): visibility: 07.12.2018 09:00:00 - 13.12.2018 09:00:00 (GMT)Brize Norton, United Kingdom (3649): sunshine duration: 07.12.2018 09:00:00 - 13.12.2018 09:00:00 (GMT)Brize Norton, United Kingdom (3649): precipitation: 07.12.2018 09:00:00 - 13.12.2018 09:00:00 (GMT)
Date & Time tt [°C] td [°C] tt -20cm [°C] tt -100cm [°C] ff [km/h] ff [kn] fx [km/h] fx [kn] dd ppp [hPa] vv [km] sd [min] rr [mm]
13.12.2018 09:00:00 2,0 -0,1 8,7 10,2 22 12 - - ESE 1016,4 15 0 0,0
13.12.2018 08:00:00 1,2 -0,1 - - 15 8 - - E 1016,0 10 0 0,0
13.12.2018 07:00:00 1,9 0,1 - - 16 9 - - ESE 1015,5 10 0 0,0
13.12.2018 06:00:00 2,2 0,4 - - 21 11 - - ESE 1015,3 10 0 0,0
13.12.2018 05:00:00 2,2 0,3 - - 18 10 - - ESE 1015,0 10 0 0,0
13.12.2018 04:00:00 2,2 0,1 - - 21 11 - - ESE 1015,6 10 0 0,0
13.12.2018 03:00:00 2,4 0,3 - - 24 13 - - ESE 1016,1 10 0 0,0
13.12.2018 02:00:00 2,4 0,0 - - 18 10 - - ESE 1016,5 10 0 0,0
13.12.2018 01:00:00 2,0 -0,8 - - 16 9 - - ESE 1017,0 30 0 0,0
13.12.2018 00:00:00 2,3 -0,5 - - 18 10 - - ESE 1017,6 10 - 0,0
12.12.2018 23:00:00 2,4 -0,9 - - 15 8 - - ESE 1017,9 10 0 0,0
12.12.2018 22:00:00 2,4 -1,7 - - 13 7 - - ESE 1018,1 10 0 0,0
12.12.2018 21:00:00 2,8 -1,6 - - 16 9 - - ESE 1018,2 10 0 0,0
12.12.2018 20:00:00 2,9 -1,3 - - 16 9 - - ESE 1018,7 10 0 0,0
12.12.2018 19:00:00 3,3 -0,9 - - 15 8 - - ESE 1019,4 10 0 0,0
12.12.2018 18:00:00 4,0 -0,8 - - 21 11 - - ESE 1019,5 10 0 0,0
12.12.2018 17:00:00 5,2 0,2 - - 16 9 - - SE 1020,1 10 0 0,0
12.12.2018 16:00:00 6,2 1,3 - - 22 12 - - SE 1020,0 10 0 0,0
12.12.2018 15:00:00 6,8 2,3 - - 18 10 - - SSE 1020,2 10 0 0,0
12.12.2018 14:00:00 7,2 3,6 - - 16 9 - - SE 1020,2 10 18 0,0
12.12.2018 13:00:00 7,2 4,5 - - 18 10 - - SE 1021,0 10 6 0,0
12.12.2018 12:00:00 7,1 4,9 - - 18 10 - - SSE 1021,6 10 6 0,0
12.12.2018 11:00:00 6,8 5,0 - - 13 7 - - SE 1022,1 10 48 0,0
12.12.2018 10:00:00 5,6 4,8 - - 11 6 - - SE 1021,9 10 0 0,0
12.12.2018 09:00:00 5,0 4,6 9,0 10,4 9 5 - - ESE 1021,6 8 0 0,0
12.12.2018 08:00:00 4,5 4,0 - - 9 5 - - E 1021,4 8 0 0,0
12.12.2018 07:00:00 4,6 4,2 - - 8 4 - - E 1021,4 10 0 0,0
12.12.2018 06:00:00 5,2 4,7 - - 8 4 - - SE 1021,0 6 0 0,0
12.12.2018 05:00:00 5,4 4,7 - - 9 5 - - ESE 1020,8 6 0 0,0
12.12.2018 04:00:00 5,4 4,6 - - 9 5 - - ESE 1021,2 6 0 0,0
12.12.2018 03:00:00 5,4 4,7 - - 9 5 - - E 1021,6 6 0 0,0
12.12.2018 02:00:00 5,3 4,6 - - 9 5 - - ESE 1021,5 6 0 0,0
12.12.2018 01:00:00 5,4 4,7 - - 8 4 - - ESE 1021,8 8 0 0,0
12.12.2018 00:00:00 5,4 4,7 - - 11 6 - - ESE 1021,8 8 - 0,0
11.12.2018 23:00:00 5,4 4,7 - - 8 4 - - E 1021,9 10 0 0,0
11.12.2018 22:00:00 5,9 4,8 - - 9 5 - - ESE 1021,8 10 0 0,0
11.12.2018 21:00:00 6,3 5,1 - - 9 5 - - ESE 1022,0 10 0 0,0
11.12.2018 20:00:00 6,7 5,4 - - 11 6 - - SE 1022,1 10 0 0,0
11.12.2018 19:00:00 6,9 5,4 - - 11 6 - - SE 1022,6 10 0 0,0
11.12.2018 18:00:00 6,8 5,0 - - 9 5 - - SE 1022,5 10 0 0,0
11.12.2018 17:00:00 7,0 5,1 - - 9 5 - - SSE 1022,5 10 0 0,0
11.12.2018 16:00:00 7,4 5,4 - - 5 3 - - SE 1022,6 10 0 0,0
11.12.2018 15:00:00 8,4 5,5 - - 8 4 - - SSE 1022,7 10 36 0,0
11.12.2018 14:00:00 9,0 5,7 - - 5 3 - - SE 1023,5 10 60 0,0
11.12.2018 13:00:00 7,6 4,9 - - 5 3 - - E 1024,0 10 60 0,0
11.12.2018 12:00:00 7,4 4,9 - - 2 1 - - E 1024,4 10 60 0,0
11.12.2018 11:00:00 4,6 4,5 - - 2 1 - - E 1025,2 7 60 0,0
11.12.2018 10:00:00 3,0 3,0 - - 5 3 - - NE 1025,5 4,5 18 0,0
11.12.2018 09:00:00 1,4 1,4 9,4 10,5 4 2 - - NE 1025,8 3,7 0 0,0
11.12.2018 08:00:00 0,9 0,8 - - 5 3 - - NNE 1025,9 3,7 0 0,0
11.12.2018 07:00:00 0,4 0,4 - - 5 3 - - ENE 1025,8 0,8 0 0,0
11.12.2018 06:00:00 0,5 0,4 - - 4 2 - - ENE 1026,0 3,0 0 0,0
11.12.2018 05:00:00 1,2 1,1 - - 5 3 - - NE 1026,2 5 0 0,0
11.12.2018 04:00:00 1,6 1,4 - - 4 2 - - ENE 1026,5 5 0 0,0
11.12.2018 03:00:00 2,2 1,7 - - 0 0 - - N 1026,6 10 0 0,0
11.12.2018 02:00:00 3,4 2,6 - - 4 2 - - E 1026,7 10 0 0,0
11.12.2018 01:00:00 5,0 4,0 - - 4 2 - - E 1027,1 10 0 0,0
11.12.2018 00:00:00 5,2 4,2 - - 4 2 - - WSW 1027,9 10 - 0,0
10.12.2018 23:00:00 5,1 4,2 - - 4 2 - - W 1028,0 10 0 0,0
10.12.2018 22:00:00 4,9 3,6 - - 0 0 - - N 1028,1 10 0 0,0
10.12.2018 21:00:00 5,8 4,3 - - 8 4 - - W 1028,0 10 0 0,0
10.12.2018 20:00:00 6,6 4,4 - - 4 2 - - W 1028,0 10 0 0,0
10.12.2018 19:00:00 7,0 4,5 - - 4 2 - - SW 1028,2 10 0 0,0
10.12.2018 18:00:00 7,4 4,6 - - 5 3 - - W 1028,3 10 0 0,0
10.12.2018 17:00:00 7,7 4,5 - - 4 2 - - W 1028,6 10 0 0,0
10.12.2018 16:00:00 8,1 4,5 - - 5 3 - - W 1028,0 10 0 0,0
10.12.2018 15:00:00 8,5 4,7 - - 13 7 - - WNW 1027,9 10 0 0,0
10.12.2018 14:00:00 8,9 4,9 - - 11 6 - - W 1027,7 10 0 0,0
10.12.2018 13:00:00 8,6 4,5 - - 15 8 - - WNW 1028,0 10 0 0,0
10.12.2018 12:00:00 9,4 4,8 - - 9 5 - - W 1028,3 10 54 0,0
10.12.2018 11:00:00 8,5 5,3 - - 9 5 - - SW 1028,2 10 54 0,0
10.12.2018 10:00:00 7,3 4,8 - - 8 4 - - SSW 1027,9 10 36 0,0
10.12.2018 09:00:00 5,6 4,0 9,7 10,5 8 4 - - W 1027,4 10 0 0,0
10.12.2018 08:00:00 5,5 4,1 - - 5 3 - - W 1026,7 10 0 0,0
10.12.2018 07:00:00 5,5 3,9 - - 5 3 - - W 1026,4 10 0 0,0
10.12.2018 06:00:00 5,9 4,0 - - 8 4 - - W 1026,1 10 0 0,0
10.12.2018 05:00:00 6,5 4,2 - - 9 5 - - W 1025,5 10 0 0,0
10.12.2018 04:00:00 7,3 4,6 - - 13 7 - - W 1025,1 10 0 0,0
10.12.2018 03:00:00 7,0 4,7 - - 8 4 - - WSW 1024,7 10 0 0,0
10.12.2018 02:00:00 7,0 4,8 - - 8 4 - - WSW 1024,4 10 0 0,0
10.12.2018 01:00:00 6,7 4,6 - - 5 3 - - WSW 1023,9 10 0 0,0
10.12.2018 00:00:00 6,1 4,4 - - 8 4 - - WSW 1023,6 10 - 0,0
09.12.2018 23:00:00 5,6 4,1 - - 5 3 - - WSW 1022,8 10 0 0,0
09.12.2018 22:00:00 6,6 4,5 - - 8 4 - - W 1022,2 10 0 0,0
09.12.2018 21:00:00 7,1 5,2 - - 9 5 - - WNW 1021,4 10 0 0,0
09.12.2018 20:00:00 7,5 5,5 - - 11 6 - - WNW 1021,0 10 0 0,0
09.12.2018 19:00:00 8,1 5,4 - - 16 9 - - WNW 1020,3 10 0 0,0
09.12.2018 18:00:00 8,7 5,3 - - 16 9 - - WNW 1018,9 10 0 0,0
09.12.2018 17:00:00 9,0 4,8 - - 18 10 - - WNW 1017,9 10 0 0,0
09.12.2018 16:00:00 8,7 5,4 - - 16 9 - - WNW 1016,3 10 0 0,0
09.12.2018 15:00:00 9,6 4,4 - - 16 9 - - WNW 1015,0 10 24 0,0
09.12.2018 14:00:00 10,2 5,3 - - 18 10 - - WNW 1013,2 10 36 0,0
09.12.2018 13:00:00 9,5 5,4 - - 16 9 - - NW 1012,1 10 30 0,0
09.12.2018 12:00:00 9,4 6,0 - - 21 11 - - NW 1011,0 10 36 0,0
09.12.2018 11:00:00 8,3 6,3 - - 21 11 - - NW 1009,7 10 18 0,4
09.12.2018 10:00:00 8,6 7,0 - - 22 12 - - NW 1007,6 10 0 1,4
09.12.2018 09:00:00 9,6 6,1 9,7 10,5 24 13 - - WNW 1005,3 10 0 0,0
09.12.2018 08:00:00 9,3 6,3 - - 21 11 - - WNW 1003,7 10 0 0,0
09.12.2018 07:00:00 9,1 6,1 - - 16 9 - - W 1001,8 10 0 0,0
09.12.2018 06:00:00 9,0 6,1 - - 21 11 - - W 1000,6 10 0 0,0
09.12.2018 05:00:00 8,4 6,1 - - 22 12 50 27 W 1000,1 10 0 0,4
09.12.2018 04:00:00 8,7 5,5 - - 21 11 - - W 999,5 10 0 0,0
09.12.2018 03:00:00 8,2 4,6 - - 16 9 - - WSW 999,7 10 0 0,0
09.12.2018 02:00:00 8,5 5,0 - - 16 9 - - W 999,6 10 0 0,0
09.12.2018 01:00:00 8,4 4,4 - - 15 8 - - W 999,7 10 0 0,0
09.12.2018 00:00:00 9,1 4,4 - - 21 11 - - W 999,6 10 - 0,0
08.12.2018 23:00:00 8,4 5,4 - - 16 9 - - W 999,0 10 0 0,0
08.12.2018 22:00:00 8,3 5,5 - - 16 9 - - W 998,9 10 0 0,2
08.12.2018 21:00:00 8,3 5,3 - - 16 9 - - WSW 998,9 30 0 0,0
08.12.2018 20:00:00 8,0 5,0 - - 16 9 - - W 998,7 10 0 0,0
08.12.2018 19:00:00 8,5 4,6 - - 22 12 48 26 W 998,3 10 0 0,6
08.12.2018 18:00:00 9,9 6,8 - - 22 12 - - W 998,3 5 0 0,2
08.12.2018 17:00:00 10,3 7,4 - - 24 13 52 28 W 998,2 10 0 0,0
08.12.2018 16:00:00 11,0 7,6 - - 22 12 57 31 W 998,1 20 0 0,0
08.12.2018 15:00:00 11,5 8,9 - - 21 11 48 26 W 998,8 10 0 0,0
08.12.2018 14:00:00 11,2 9,7 - - 21 11 - - WSW 1000,1 10 0 0,2
08.12.2018 13:00:00 9,6 9,1 - - 16 9 - - SW 1001,5 4,0 0 0,2
08.12.2018 12:00:00 9,8 8,0 - - 15 8 - - WSW 1003,1 10 0 0,0
08.12.2018 11:00:00 10,3 5,5 - - 15 8 - - WSW 1004,7 11 54 0,0
08.12.2018 10:00:00 9,2 4,8 - - 15 8 - - WSW 1004,8 10 54 0,0
08.12.2018 09:00:00 8,6 4,2 9,9 10,5 26 14 - - W 1005,0 10 0 0,0
08.12.2018 08:00:00 8,5 4,0 - - 22 12 50 27 W 1005,3 10 0 0,0
08.12.2018 07:00:00 8,3 4,0 - - 26 14 46 25 W 1004,7 30 0 0,0
08.12.2018 06:00:00 8,7 3,7 - - 24 13 50 27 W 1004,2 10 0 0,0
08.12.2018 05:00:00 8,9 3,9 - - 24 13 55 30 W 1003,8 10 0 0,0
08.12.2018 04:00:00 8,9 4,2 - - 22 12 48 26 W 1003,3 10 0 0,0
08.12.2018 03:00:00 9,1 4,5 - - 21 11 - - W 1003,7 10 0 0,0
08.12.2018 02:00:00 8,8 4,8 - - 21 11 48 26 W 1003,4 10 0 0,0
08.12.2018 01:00:00 8,2 4,8 - - 21 11 - - W 1003,6 10 0 0,0
08.12.2018 00:00:00 7,6 4,2 - - 21 11 - - WSW 1004,0 10 - 0,0
07.12.2018 23:00:00 7,6 4,9 - - 15 8 - - WSW 1003,9 10 0 0,0
07.12.2018 22:00:00 6,9 4,3 - - 13 7 - - WSW 1004,2 10 0 0,0
07.12.2018 21:00:00 6,8 3,3 - - 15 8 - - WSW 1004,0 10 0 0,0
07.12.2018 20:00:00 6,4 2,9 - - 15 8 - - WSW 1004,5 10 0 0,0
07.12.2018 19:00:00 5,5 3,5 - - 8 4 - - WSW 1004,3 10 0 0,2
07.12.2018 18:00:00 5,8 3,6 - - 26 14 - - WNW 1004,1 10 0 0,6
07.12.2018 17:00:00 6,5 1,6 - - 13 7 - - WSW 1002,9 10 0 0,0
07.12.2018 16:00:00 7,3 1,3 - - 22 12 - - W 1001,9 10 0 0,0
07.12.2018 15:00:00 8,8 2,6 - - 21 11 - - W 1001,3 10 36 0,0
07.12.2018 14:00:00 7,4 4,8 - - 16 9 - - WNW 1001,1 10 18 1,0
07.12.2018 13:00:00 10,3 3,6 - - 18 10 - - W 1000,5 10 42 0,0
07.12.2018 12:00:00 9,5 5,3 - - 21 11 - - WNW 1000,3 10 18 0,2
07.12.2018 11:00:00 9,3 6,8 - - 21 11 - - WNW 999,8 10 0 0,0
07.12.2018 10:00:00 9,6 8,5 - - 16 9 - - W 999,2 10 0 1,4
07.12.2018 09:00:00 10,9 9,8 10,0 10,5 24 13 46 25 W 999,2 10 0 2,2

tt = temperature
td = dewpoint
tt -20cm = temperature -20cm
tt -100cm = temperature -100cm
ff = wind speed
fx = gusts
dd = wind direction
ppp = reduced air pressure
vv = visibility
sd = sunshine duration
rr = precipitation

Next stations